User: anonymous
Location: Caltech
(34.1382°N, 118.1253°W)
Time: 10:35:36
(UTC-07:00)
Language:

SL-16 R/B - Orbit

View from above orbital plane
View from above orbital plane
View from above satellite
View from above satellite

Ground track
Ground track

The orbit data is extracted from the following two-line orbital elements,

1 31793U 07029B   14109.08074508  .00000387  00000-0  22760-3 0  9536
2 31793 070.9762 295.2597 0001604 274.1688 224.5244 14.14263818351394
Epoch (UTC): 19 April 2014 01:56:16
Eccentricity: 0.0001604
inclination: 70.9762°
perigee height: 843 km
apogee height: 846 km
right ascension of ascending node: 295.2597°
argument of perigee: 274.1688°
revolutions per day: 14.14263818
mean anomaly at epoch: 224.5244°
orbit number at epoch: 35139

The dashed part of the orbit path shows where the satellite is in the earth's shadow,  

DLR